This is the latest recevied weather packets stored in our database for station/object N1UNH. If no packets are shown the sender has not sent any weather packets the latest 10 day(s).
| Time | Temp. | Humidity | Pressure | Rain* | Wind** | Luminosity | Snow |
|---|---|---|---|---|---|---|---|
| 1778045696 | 15° C | 82% | 1014 hPa | 0 mm | - | 0 W/m² | - |
| 1778045394 | 14.44° C | 82% | 1014.1 hPa | 0 mm | - | 0 W/m² | - |
| 1778045093 | 15° C | 83% | 1014.1 hPa | 0 mm | - | 0 W/m² | - |
| 1778044789 | 15° C | 82% | 1014.1 hPa | 0 mm | - | 0 W/m² | - |
| 1778044486 | 15° C | 82% | 1014.2 hPa | 0 mm | - | 0 W/m² | - |
| 1778044183 | 15° C | 81% | 1014.1 hPa | 0 mm | - | 0 W/m² | - |
| 1778043881 | 15.56° C | 80% | 1013.9 hPa | 0 mm | - | 0 W/m² | - |
| 1778043577 | 15.56° C | 80% | 1013.9 hPa | 0 mm | - | 0 W/m² | - |
| 1778043275 | 15.56° C | 74% | 1014.3 hPa | 0 mm | - | 0 W/m² | - |
| 1778042971 | 15.56° C | 77% | 1014.2 hPa | 0 mm | - | 0 W/m² | - |
| 1778042670 | 16.11° C | 77% | 1014.1 hPa | 0 mm | - | 0 W/m² | - |
| 1778042366 | 16.11° C | 74% | 1014.1 hPa | 0 mm | - | 0 W/m² | - |
| 1778042063 | 16.67° C | 74% | 1014.1 hPa | 0 mm | - | 0 W/m² | - |
| 1778041761 | 16.67° C | 71% | 1014 hPa | 0 mm | - | 0 W/m² | - |
| 1778041460 | 16.67° C | 71% | 1014.2 hPa | 0 mm | - | 0 W/m² | - |
| 1778041158 | 16.67° C | 72% | 1014.2 hPa | 0 mm | - | 0 W/m² | - |
| 1778040855 | 16.67° C | 75% | 1014.3 hPa | 0 mm | - | 0 W/m² | - |
| 1778040552 | 16.67° C | 73% | 1014.2 hPa | 0 mm | - | 0 W/m² | - |
| 1778040250 | 16.67° C | 74% | 1014.3 hPa | 0 mm | - | 0 W/m² | - |
| 1778039945 | 16.67° C | 73% | 1014 hPa | 0 mm | - | 0 W/m² | - |
| 1778039643 | 16.67° C | 74% | 1014.2 hPa | 0 mm | - | 0 W/m² | - |
| 1778039340 | 16.11° C | 79% | 1014 hPa | 0 mm | - | 0 W/m² | - |
| 1778039037 | 16.11° C | 80% | 1014 hPa | 0 mm | - | 0 W/m² | - |
| 1778038734 | 16.11° C | 80% | 1013.9 hPa | 0 mm | - | 0 W/m² | - |
| 1778038431 | 15.56° C | 80% | 1013.8 hPa | 0 mm | - | 0 W/m² | - |
* Rain latest hour (hover to see other rain measurements)
** Current wind speed in m/s (hover to see current wind gust speed)